SL-4 R/B

基本信息
目录编号:
39679
目录名称:
SL-4 R/B
国际标识:
2014-021B
轨道中心:
EARTH
物体状态:
在轨
发射日期:
2014-04-16 UTC
国别:
俄罗斯(独联体) (CIS)
轨道信息
数据来源: 国际轨道数据
星历时间: 2026-07-13T06:02:49+0800
半长轴: 6817.01km
偏心率: 0.0089796
轨道倾角: 51.606°
近地点辐角: 200.092°
升交点赤经: 84.666°
平近点角: 159.652°
近地点: 377.658km
远地点: 500.088km
周期: 93.358分钟
每日圈数: 15.424529
详细信息
发射场:
TTMTR
轨道高度:
LEO
数据来源:
AOE Integration Group
参考系:
TEME
时间系统:
UTC
历元类型:
SGP4
2D轨道图
3D轨道图
轨道高度分析图
轨道倾角分析图
轨道综合分析图
查看轨道综合分析图